Ellensburg, WA

2:55 AM PDT on July 22, 2017 (GMT -0700)
Bowers

Weather History for KELN - March, 2014

Change the Weather History Date:

Wednesday, March 26, 2014

  Actual Average (KYKM) Record (KYKM)
Temperature  
Mean Temperature 42 °F -  
Max Temperature 54 °F 58 °F 74 °F (2015)
Min Temperature 30 °F 31 °F 22 °F (1990)
Degree Days  
Heating Degree Days 23    
Moisture  
Dew Point 33 °F    
Average Humidity 70    
Maximum Humidity 86    
Minimum Humidity 43    
Precipitation  
Precipitation 0.00 in - - ()
Sea Level Pressure  
Sea Level Pressure 29.56 in    
Wind  
Wind Speed 7 mph (NW)    
Max Wind Speed 15 mph    
Max Gust Speed -    
Visibility 10 miles    
Events Rain    
Averages and records for this station are not official NWS values.
T = Trace of Precipitation, MM = Missing Value Source: NWS Daily Summary

Daily Weather History Graph

Daily Weather History Graph

Search for Another Location

Airport or City:

Trip Planner

Search our weather history database for the weather conditions in past years. The results will help you decide how hot, cold, wet, or windy it might be!

Date:

Astronomy

Mar. 26, 2014 Rise Set
Actual Time 6:52 AM PDT 7:23 PM PDT
Civil Twilight 6:22 AM PDT 7:53 PM PDT
Nautical Twilight 5:46 AM PDT 8:30 PM PDT
Astronomical Twilight 5:08 AM PDT 9:08 PM PDT
Moon 4:21 AM PDT (3/26) 2:52 PM PDT (3/26)
Length of Visible Light 13h 31m
Length of Day
12h 30m
Waning Crescent, 21% of the Moon is Illuminated
Mar 26
Waning Crescent
Mar 30
New
Apr 7
First Quarter
Apr 15
Full
Apr 22
Last Quarter

Hourly Weather History & Observations

Time (PDT) Temp. Windchill Dew Point Humidity Pressure Visibility Wind Dir Wind Speed Gust Speed Precip Events Conditions
12:53 AM 41.0 °F 33.1 °F 33.1 °F 73% 29.59 in 10.0 mi NW 15.0 mph - N/A   Clear
1:53 AM 37.9 °F 30.9 °F 32.0 °F 79% 29.59 in 10.0 mi NW 10.4 mph - N/A   Clear
2:53 AM 37.9 °F 35.5 °F 32.0 °F 79% 29.60 in 10.0 mi Variable 3.5 mph - N/A   Clear
3:53 AM 36.0 °F 30.3 °F 28.9 °F 76% 29.59 in 10.0 mi NW 6.9 mph - N/A   Clear
4:53 AM 35.1 °F - 28.9 °F 78% 29.59 in 10.0 mi Calm Calm - N/A   Clear
5:53 AM 34.0 °F - 28.9 °F 82% 29.59 in 10.0 mi Calm Calm - N/A   Clear
6:53 AM 30.9 °F 27.5 °F 27.0 °F 85% 29.60 in 10.0 mi SE 3.5 mph - N/A   Clear
7:53 AM 34.0 °F 29.8 °F 30.0 °F 85% 29.60 in 10.0 mi East 4.6 mph - N/A   Clear
8:53 AM 39.9 °F - 32.0 °F 73% 29.60 in 10.0 mi Calm Calm - N/A   Overcast
9:53 AM 39.9 °F - 32.0 °F 73% 29.60 in 10.0 mi Calm Calm - N/A   Mostly Cloudy
10:53 AM 45.0 °F 42.6 °F 32.0 °F 60% 29.60 in 10.0 mi SSW 4.6 mph - N/A   Partly Cloudy
11:53 AM 48.0 °F - 32.0 °F 54% 29.58 in 10.0 mi Variable 3.5 mph - N/A   Overcast
12:53 PM 52.0 °F - 30.9 °F 45% 29.56 in 10.0 mi NNE 4.6 mph - N/A   Overcast
1:53 PM 54.0 °F - 32.0 °F 43% 29.54 in 10.0 mi Variable 3.5 mph - N/A   Mostly Cloudy
2:53 PM 54.0 °F - 33.1 °F 45% 29.52 in 10.0 mi East 5.8 mph - N/A   Clear
3:53 PM 54.0 °F - 34.0 °F 47% 29.51 in 10.0 mi SE 6.9 mph - N/A   Mostly Cloudy
4:53 PM 53.1 °F - 34.0 °F 48% 29.50 in 10.0 mi SSE 6.9 mph - N/A   Scattered Clouds
5:29 PM 48.9 °F - 37.0 °F 64% 29.50 in 10.0 mi West 12.7 mph - 0.00 in Rain Light Rain
5:53 PM 46.9 °F - 39.0 °F 74% 29.52 in 9.0 mi West 6.9 mph - 0.00 in Rain Light Rain
6:53 PM 46.9 °F - 39.9 °F 77% 29.51 in 10.0 mi North 6.9 mph - 0.00 in   Overcast
7:53 PM 44.1 °F 41.5 °F 37.9 °F 79% 29.51 in 10.0 mi NNW 4.6 mph - N/A   Partly Cloudy
8:53 PM 43.0 °F 37.7 °F 37.9 °F 82% 29.52 in 10.0 mi WNW 9.2 mph - N/A   Overcast
9:53 PM 39.0 °F 34.0 °F 35.1 °F 86% 29.53 in 10.0 mi West 6.9 mph - N/A   Partly Cloudy
10:53 PM 43.0 °F 37.7 °F 36.0 °F 76% 29.53 in 10.0 mi NW 9.2 mph - N/A   Overcast
11:53 PM 39.9 °F 35.1 °F 35.1 °F 83% 29.54 in 10.0 mi NW 6.9 mph - N/A   Scattered Clouds